Dades meteomassalio
Diari Summary for Abril 23, 2017 Units:  Metric    English   Both
« Previous Day
Next Day »
Diari Semanal Mensual Anual Personalitzat
  Maxima: Minima: Mijana:
Temperatura: 25.2 °C 2.9 °C 14.2 °C
Rosada: 7.5 °C -0.8 °C 2.8 °C
Humitat: 80 % 19 % 51 %
Velocitat del vent: 22.2 km/h 0.0 km/h 3.4 km/h
Racha vent: 22.2 km/h - -
Vent:- - East
Pressio: 1020.9 hPa 1015.1 hPa -
Pluja: 0.0 mm    
Historical Graphs
 
 
Tabular Data for Abril 23, 2017
Time Temperature Dew Point Pressure Wind Wind Speed Wind Gust Humidity Rainfall Rate (Hourly) solar Conditions
00:01 10.5 °C 4.6 °C 1020.9 hPa Calm     67 % 0.0 mm 0.0 W/m2 CLR
00:06 10.2 °C 4.6 °C 1020.9 hPa Calm     68 % 0.0 mm 0.0 W/m2 CLR
00:11 10.0 °C 4.6 °C 1020.9 hPa Calm     69 % 0.0 mm 0.0 W/m2 CLR
00:16 9.8 °C 4.3 °C 1020.9 hPa Calm     69 % 0.0 mm 0.0 W/m2 CLR
00:21 9.6 °C 4.3 °C 1020.9 hPa Calm     70 % 0.0 mm 0.0 W/m2 CLR
00:26 9.3 °C 4.1 °C 1020.9 hPa Calm     70 % 0.0 mm 0.0 W/m2 CLR
00:31 9.1 °C 4.1 °C 1020.9 hPa Calm     71 % 0.0 mm 0.0 W/m2 CLR
00:36 8.9 °C 4.1 °C 1020.9 hPa Calm     72 % 0.0 mm 0.0 W/m2 CLR
00:41 8.7 °C 3.9 °C 1020.9 hPa Calm     72 % 0.0 mm 0.0 W/m2 CLR
00:46 8.4 °C 3.9 °C 1020.9 hPa Calm     73 % 0.0 mm 0.0 W/m2 CLR
00:51 8.3 °C 3.8 °C 1020.9 hPa Calm     73 % 0.0 mm 0.0 W/m2 CLR
00:56 8.2 °C 3.6 °C 1020.9 hPa Calm     73 % 0.0 mm 0.0 W/m2 CLR
01:01 8.0 °C 3.7 °C 1020.9 hPa Calm     74 % 0.0 mm 0.0 W/m2 CLR
01:06 7.8 °C 3.5 °C 1020.9 hPa Calm     74 % 0.0 mm 0.0 W/m2 CLR
01:11 7.6 °C 3.4 °C 1020.5 hPa Calm     75 % 0.0 mm 0.0 W/m2 CLR
01:16 7.4 °C 3.5 °C 1020.5 hPa Calm     76 % 0.0 mm 0.0 W/m2 CLR
01:21 7.3 °C 3.4 °C 1020.5 hPa Calm     76 % 0.0 mm 0.0 W/m2 CLR
01:26 7.3 °C 3.3 °C 1020.9 hPa Calm     76 % 0.0 mm 0.0 W/m2 CLR
01:31 7.3 °C 3.5 °C 1020.5 hPa Calm     77 % 0.0 mm 0.0 W/m2 CLR
01:36 7.2 °C 3.4 °C 1020.5 hPa Calm     77 % 0.0 mm 0.0 W/m2 CLR
01:42 7.1 °C 3.3 °C 1020.5 hPa Calm     77 % 0.0 mm 0.0 W/m2 CLR
01:47 6.9 °C 3.2 °C 1020.5 hPa Calm     77 % 0.0 mm 0.0 W/m2 CLR
01:52 6.7 °C 2.9 °C 1020.5 hPa Calm     77 % 0.0 mm 0.0 W/m2 CLR
01:57 6.6 °C 2.8 °C 1020.5 hPa Calm     77 % 0.0 mm 0.0 W/m2 CLR
02:02 6.4 °C 2.9 °C 1020.5 hPa Calm     78 % 0.0 mm 0.0 W/m2 CLR
02:07 6.3 °C 2.9 °C 1020.5 hPa Calm     79 % 0.0 mm 0.0 W/m2 CLR
02:12 6.3 °C 2.8 °C 1020.5 hPa Calm     78 % 0.0 mm 0.0 W/m2 CLR
02:17 6.2 °C 2.7 °C 1020.5 hPa Calm     78 % 0.0 mm 0.0 W/m2 CLR
02:22 6.2 °C 2.6 °C 1020.5 hPa Calm     78 % 0.0 mm 0.0 W/m2 CLR
02:27 6.1 °C 2.6 °C 1020.5 hPa Calm     78 % 0.0 mm 0.0 W/m2 CLR
02:32 6.0 °C 2.4 °C 1020.5 hPa Calm     78 % 0.0 mm 0.0 W/m2 CLR
02:37 5.8 °C 2.3 °C 1020.5 hPa Calm     78 % 0.0 mm 0.0 W/m2 CLR
02:42 5.7 °C 2.3 °C 1020.5 hPa Calm     79 % 0.0 mm 0.0 W/m2 CLR
02:47 5.5 °C 1.9 °C 1020.5 hPa Calm     78 % 0.0 mm 0.0 W/m2 CLR
02:52 5.4 °C 2.1 °C 1020.5 hPa Calm     79 % 0.0 mm 0.0 W/m2 CLR
02:57 5.3 °C 2.0 °C 1020.5 hPa Calm     79 % 0.0 mm 0.0 W/m2 CLR
03:02 5.3 °C 1.9 °C 1020.5 hPa Calm     79 % 0.0 mm 0.0 W/m2 CLR
03:07 5.2 °C 1.8 °C 1020.2 hPa Calm     79 % 0.0 mm 0.0 W/m2 CLR
03:12 5.1 °C 1.9 °C 1020.2 hPa Calm     80 % 0.0 mm 0.0 W/m2 CLR
03:17 4.9 °C 1.8 °C 1020.2 hPa Calm     80 % 0.0 mm 0.0 W/m2 CLR
03:22 4.8 °C 1.5 °C 1020.2 hPa Calm     79 % 0.0 mm 0.0 W/m2 CLR
03:27 4.8 °C 1.4 °C 1020.2 hPa Calm     79 % 0.0 mm 0.0 W/m2 CLR
03:32 4.8 °C 1.4 °C 1020.2 hPa Calm     79 % 0.0 mm 0.0 W/m2 CLR
03:37 4.7 °C 1.4 °C 1020.2 hPa Calm     79 % 0.0 mm 0.0 W/m2 CLR
03:42 4.6 °C 1.2 °C 1020.2 hPa Calm     79 % 0.0 mm 0.0 W/m2 CLR
03:47 4.4 °C 1.1 °C 1020.2 hPa Calm     79 % 0.0 mm 0.0 W/m2 CLR
03:52 4.3 °C 0.8 °C 1020.2 hPa Calm     78 % 0.0 mm 0.0 W/m2 CLR
03:57 4.2 °C 0.7 °C 1020.2 hPa Calm     78 % 0.0 mm 0.0 W/m2 CLR
04:02 4.2 °C 0.6 °C 1020.2 hPa Calm     77 % 0.0 mm 0.0 W/m2 CLR
04:07 4.2 °C 0.6 °C 1020.2 hPa Calm     77 % 0.0 mm 0.0 W/m2 CLR
04:12 4.2 °C 0.5 °C 1019.9 hPa Calm     77 % 0.0 mm 0.0 W/m2 CLR
04:17 4.2 °C 0.5 °C 1020.2 hPa Calm     77 % 0.0 mm 0.0 W/m2 CLR
04:22 4.0 °C 0.3 °C 1020.2 hPa Calm     77 % 0.0 mm 0.0 W/m2 CLR
04:27 3.8 °C 0.2 °C 1020.2 hPa Calm     77 % 0.0 mm 0.0 W/m2 CLR
04:32 3.7 °C 0.1 °C 1020.2 hPa Calm     77 % 0.0 mm 0.0 W/m2 CLR
04:37 3.8 °C 0.3 °C 1020.2 hPa Calm     78 % 0.0 mm 0.0 W/m2 CLR
04:42 3.8 °C 0.1 °C 1019.9 hPa Calm     77 % 0.0 mm 0.0 W/m2 CLR
04:47 3.8 °C -0.1 °C 1019.9 hPa Calm     76 % 0.0 mm 0.0 W/m2 CLR
04:52 3.7 °C -0.2 °C 1019.9 hPa Calm     76 % 0.0 mm 0.0 W/m2 CLR
04:57 3.6 °C -0.1 °C 1020.2 hPa Calm     77 % 0.0 mm 0.0 W/m2 CLR
04:59 3.6 °C -0.2 °C 1020.2 hPa Calm     76 % 0.0 mm 0.0 W/m2 CLR
05:04 3.6 °C -0.4 °C 1020.2 hPa Calm     75 % 0.0 mm 0.0 W/m2 CLR
05:09 3.6 °C -0.4 °C 1020.2 hPa Calm     75 % 0.0 mm 0.0 W/m2 CLR
05:14 3.5 °C -0.3 °C 1020.2 hPa Calm     76 % 0.0 mm 0.0 W/m2 CLR
05:19 3.4 °C -0.3 °C 1019.9 hPa Calm     77 % 0.0 mm 0.0 W/m2 CLR
05:24 3.3 °C -0.5 °C 1020.2 hPa Calm     76 % 0.0 mm 0.0 W/m2 CLR
05:29 3.4 °C -0.6 °C 1019.9 hPa Calm     75 % 0.0 mm 0.0 W/m2 CLR
05:34 3.4 °C -0.6 °C 1019.9 hPa Calm     75 % 0.0 mm 0.0 W/m2 CLR
05:39 3.5 °C -0.5 °C 1020.2 hPa Calm     75 % 0.0 mm 0.0 W/m2 CLR
05:44 3.4 °C -0.6 °C 1020.2 hPa Calm     75 % 0.0 mm 0.0 W/m2 CLR
05:49 3.3 °C -0.6 °C 1020.2 hPa Calm     76 % 0.0 mm 0.0 W/m2 CLR
05:54 3.1 °C -0.7 °C 1020.2 hPa Calm     76 % 0.0 mm 0.0 W/m2 CLR
05:59 3.1 °C -0.6 °C 1020.2 hPa Calm     77 % 0.0 mm 0.0 W/m2 CLR
06:04 3.1 °C -0.6 °C 1019.9 hPa Calm     77 % 0.0 mm 0.0 W/m2 CLR
06:09 3.0 °C -0.7 °C 1019.9 hPa Calm     77 % 0.0 mm 0.0 W/m2 CLR
06:14 3.0 °C -0.7 °C 1020.2 hPa Calm     77 % 0.0 mm 0.0 W/m2 CLR
06:19 3.0 °C -0.7 °C 1020.2 hPa Calm     77 % 0.0 mm 0.0 W/m2 CLR
06:24 3.0 °C -0.8 °C 1020.2 hPa Calm     76 % 0.0 mm 0.0 W/m2 CLR
06:29 3.0 °C -0.8 °C 1019.9 hPa Calm     76 % 0.0 mm 0.0 W/m2 CLR
06:34 2.9 °C -0.7 °C 1019.9 hPa Calm     77 % 0.0 mm 0.0 W/m2 CLR
06:39 2.9 °C -0.7 °C 1019.9 hPa Calm     77 % 0.0 mm 0.0 W/m2 CLR
06:44 2.9 °C -0.7 °C 1020.2 hPa Calm     77 % 0.0 mm 0.0 W/m2 CLR
06:49 3.0 °C -0.7 °C 1020.2 hPa Calm     77 % 0.0 mm 0.0 W/m2 CLR
06:54 2.9 °C -0.7 °C 1020.2 hPa Calm     77 % 0.0 mm 0.0 W/m2 CLR
06:59 2.9 °C -0.7 °C 1020.2 hPa Calm     77 % 0.0 mm 0.0 W/m2 CLR
07:04 2.9 °C -0.7 °C 1020.2 hPa Calm     77 % 0.0 mm 0.0 W/m2 OVC
07:09 2.9 °C -0.7 °C 1020.2 hPa Calm     77 % 0.0 mm 5.0 W/m2 OVC
07:14 2.9 °C -0.6 °C 1020.2 hPa Calm     78 % 0.0 mm 9.0 W/m2 BKN
07:19 2.9 °C -0.6 °C 1020.2 hPa Calm     78 % 0.0 mm 12.0 W/m2 BKN
07:24 2.9 °C -0.6 °C 1020.5 hPa Calm     78 % 0.0 mm 18.0 W/m2 BKN
07:29 3.1 °C -0.4 °C 1020.2 hPa Calm     78 % 0.0 mm 23.0 W/m2 BKN
07:34 3.2 °C -0.3 °C 1020.2 hPa Calm     78 % 0.0 mm 26.0 W/m2 BKN
07:39 3.2 °C -0.4 °C 1020.5 hPa Calm     77 % 0.0 mm 32.0 W/m2 BKN
07:44 3.3 °C -0.2 °C 1020.5 hPa Calm     78 % 0.0 mm 37.0 W/m2 BKN
07:49 3.4 °C -0.1 °C 1020.5 hPa Calm     78 % 0.0 mm 47.0 W/m2 SCT
07:54 3.6 °C -0.1 °C 1020.5 hPa Calm     77 % 0.0 mm 54.0 W/m2 SCT
07:59 3.7 °C 0.0 °C 1020.5 hPa Calm     77 % 0.0 mm 69.0 W/m2 SCT
08:04 3.9 °C 0.2 °C 1020.5 hPa Calm     77 % 0.0 mm 98.0 W/m2 CLR
08:09 4.2 °C 0.6 °C 1020.5 hPa Calm     77 % 0.0 mm 114.0 W/m2 CLR
08:14 4.7 °C 0.8 °C 1020.5 hPa Calm     76 % 0.0 mm 135.0 W/m2 CLR
08:19 5.3 °C 1.0 °C 1020.5 hPa Calm     74 % 0.0 mm 156.0 W/m2 CLR
08:24 5.7 °C 1.1 °C 1020.5 hPa Calm     72 % 0.0 mm 176.0 W/m2 CLR
08:29 6.2 °C 1.3 °C 1020.5 hPa Calm     71 % 0.0 mm 195.0 W/m2 CLR
08:34 6.7 °C 1.4 °C 1020.5 hPa Calm     69 % 0.0 mm 220.0 W/m2 CLR
08:39 6.9 °C 1.4 °C 1020.5 hPa Calm     68 % 0.0 mm 241.0 W/m2 CLR
08:44 7.5 °C 1.8 °C 1020.5 hPa Calm     67 % 0.0 mm 239.0 W/m2 CLR
08:49 8.1 °C 1.9 °C 1020.5 hPa Calm     65 % 0.0 mm 269.0 W/m2 CLR
08:54 8.6 °C 1.9 °C 1020.2 hPa Calm     63 % 0.0 mm 230.0 W/m2 CLR
08:59 9.2 °C 2.1 °C 1020.2 hPa Calm     61 % 0.0 mm 329.0 W/m2 CLR
09:04 9.7 °C 1.8 °C 1020.2 hPa Calm     58 % 0.0 mm 345.0 W/m2 CLR
09:09 10.2 °C 1.6 °C 1020.2 hPa Calm     55 % 0.0 mm 320.0 W/m2 CLR
09:14 10.7 °C 1.8 °C 1020.2 hPa Calm     54 % 0.0 mm 123.0 W/m2 CLR
09:19 11.3 °C 2.3 °C 1020.2 hPa Calm     54 % 0.0 mm 406.0 W/m2 CLR
09:24 11.9 °C 2.3 °C 1020.2 hPa Calm     52 % 0.0 mm 427.0 W/m2 CLR
09:29 12.3 °C 2.2 °C 1019.9 hPa Calm     50 % 0.0 mm 448.0 W/m2 CLR
09:34 12.6 °C 2.2 °C 1019.9 hPa Calm     49 % 0.0 mm 469.0 W/m2 CLR
09:39 13.0 °C 2.5 °C 1019.9 hPa Calm     49 % 0.0 mm 489.0 W/m2 CLR
09:44 13.4 °C 2.6 °C 1019.9 hPa Calm     48 % 0.0 mm 510.0 W/m2 CLR
09:49 13.8 °C 3.2 °C 1019.9 hPa Calm     49 % 0.0 mm 519.0 W/m2 CLR
09:54 14.1 °C 3.6 °C 1019.9 hPa Calm     49 % 0.0 mm 524.0 W/m2 CLR
09:59 14.4 °C 4.2 °C 1019.9 hPa Calm     50 % 0.0 mm 536.0 W/m2 CLR
10:04 15.1 °C 4.7 °C 1019.9 hPa Calm     50 % 0.0 mm 557.0 W/m2 CLR
10:10 15.7 °C 5.0 °C 1019.5 hPa Calm     49 % 0.0 mm 568.0 W/m2 CLR
10:15 16.0 °C 5.3 °C 1019.5 hPa Calm     49 % 0.0 mm 568.0 W/m2 CLR
10:20 16.2 °C 5.5 °C 1019.9 hPa ENE 5.6 km/h 5.6 km/h 49 % 0.0 mm 557.0 W/m2 CLR
10:25 16.2 °C 6.0 °C 1019.5 hPa ENE 11.1 km/h 11.1 km/h 51 % 0.0 mm 566.0 W/m2 CLR
10:30 16.3 °C 6.2 °C 1019.5 hPa ENE 9.3 km/h 9.3 km/h 51 % 0.0 mm 570.0 W/m2 CLR
10:35 16.4 °C 6.5 °C 1019.5 hPa NE 11.3 km/h 11.3 km/h 52 % 0.0 mm 557.0 W/m2 CLR
10:40 16.4 °C 6.8 °C 1019.5 hPa ENE 8.0 km/h 8.0 km/h 53 % 0.0 mm 570.0 W/m2 CLR
10:45 16.6 °C 7.0 °C 1019.5 hPa ENE 9.3 km/h 9.3 km/h 53 % 0.0 mm 603.0 W/m2 CLR
10:50 16.4 °C 7.1 °C 1019.5 hPa NE 7.4 km/h 7.4 km/h 54 % 0.0 mm 608.0 W/m2 CLR
10:55 16.6 °C 7.2 °C 1019.5 hPa ENE 9.3 km/h 9.3 km/h 54 % 0.0 mm 622.0 W/m2 CLR
11:00 16.9 °C 7.2 °C 1019.5 hPa Calm     53 % 0.0 mm 631.0 W/m2 CLR
11:05 17.2 °C 7.5 °C 1019.5 hPa ENE 3.7 km/h 3.7 km/h 53 % 0.0 mm 608.0 W/m2 CLR
11:10 17.3 °C 7.1 °C 1019.5 hPa ENE 5.6 km/h 5.6 km/h 51 % 0.0 mm 575.0 W/m2 CLR
11:15 17.4 °C 7.2 °C 1019.5 hPa ENE 3.7 km/h 4.2 km/h 51 % 0.0 mm 577.0 W/m2 CLR
11:20 17.4 °C 7.2 °C 1019.5 hPa NE 9.3 km/h 9.3 km/h 51 % 0.0 mm 594.0 W/m2 CLR
11:25 17.6 °C 7.3 °C 1019.5 hPa Calm     51 % 0.0 mm 613.0 W/m2 CLR
11:30 17.8 °C 7.2 °C 1019.2 hPa Calm     50 % 0.0 mm 645.0 W/m2 CLR
11:35 18.0 °C 7.1 °C 1019.2 hPa Calm     49 % 0.0 mm 652.0 W/m2 CLR
11:40 18.3 °C 7.1 °C 1019.2 hPa Calm     48 % 0.0 mm 661.0 W/m2 CLR
11:45 18.5 °C 7.3 °C 1019.2 hPa Calm     48 % 0.0 mm 689.0 W/m2 CLR
11:50 18.8 °C 7.3 °C 1019.2 hPa Calm     47 % 0.0 mm 673.0 W/m2 CLR
11:55 19.2 °C 7.3 °C 1019.2 hPa Calm     46 % 0.0 mm 691.0 W/m2 CLR
11:56 19.2 °C 7.0 °C 1019.2 hPa Calm     45 % 0.0 mm 687.0 W/m2 CLR
12:01 19.2 °C 7.0 °C 1019.2 hPa ENE 5.6 km/h 5.6 km/h 45 % 0.0 mm 689.0 W/m2 CLR
12:05 19.3 °C 7.4 °C 1019.2 hPa ENE 5.6 km/h 5.6 km/h 46 % 0.0 mm 691.0 W/m2 CLR
12:11 19.4 °C 7.4 °C 1018.8 hPa ENE 7.4 km/h 7.4 km/h 46 % 0.0 mm 717.0 W/m2 CLR
12:16 19.5 °C 6.9 °C 1018.8 hPa East 7.4 km/h 7.4 km/h 44 % 0.0 mm 721.0 W/m2 CLR
12:21 19.6 °C 7.3 °C 1018.8 hPa ENE 7.4 km/h 7.4 km/h 45 % 0.0 mm 737.0 W/m2 CLR
12:26 19.5 °C 6.9 °C 1018.8 hPa East 5.6 km/h 5.6 km/h 44 % 0.0 mm 677.0 W/m2 CLR
12:31 19.6 °C 7.0 °C 1018.8 hPa ENE 7.4 km/h 7.4 km/h 44 % 0.0 mm 698.0 W/m2 CLR
12:36 19.8 °C 6.9 °C 1018.8 hPa East 5.6 km/h 5.6 km/h 43 % 0.0 mm 772.0 W/m2 CLR
12:41 19.9 °C 6.2 °C 1018.8 hPa ENE 6.4 km/h 6.4 km/h 41 % 0.0 mm 796.0 W/m2 CLR
12:46 20.1 °C 6.4 °C 1018.8 hPa ENE 3.7 km/h   41 % 0.0 mm 784.0 W/m2 CLR
12:51 20.1 °C 5.7 °C 1018.8 hPa Calm     39 % 0.0 mm 782.0 W/m2 CLR
12:56 20.4 °C 5.6 °C 1018.5 hPa Calm     38 % 0.0 mm 773.0 W/m2 CLR
13:01 20.9 °C 5.3 °C 1018.5 hPa Calm     36 % 0.0 mm 779.0 W/m2 CLR
13:06 21.3 °C 4.8 °C 1018.5 hPa Calm     34 % 0.0 mm 791.0 W/m2 CLR
13:11 21.6 °C 5.1 °C 1018.5 hPa Calm     34 % 0.0 mm 784.0 W/m2 CLR
13:16 22.0 °C 5.8 °C 1018.5 hPa NE 14.8 km/h 14.8 km/h 35 % 0.0 mm 789.0 W/m2 CLR
13:21 22.1 °C 5.5 °C 1018.5 hPa NE 7.4 km/h 7.4 km/h 34 % 0.0 mm 805.0 W/m2 CLR
13:26 22.0 °C 6.2 °C 1018.2 hPa NE 8.0 km/h 8.0 km/h 36 % 0.0 mm 807.0 W/m2 CLR
13:31 22.2 °C 6.8 °C 1018.2 hPa NNE 7.4 km/h 7.4 km/h 37 % 0.0 mm 793.0 W/m2 CLR
13:36 22.0 °C 6.6 °C 1018.2 hPa NE 9.3 km/h 9.3 km/h 37 % 0.0 mm 780.0 W/m2 CLR
13:41 21.9 °C 6.6 °C 1018.2 hPa ENE 7.4 km/h 7.4 km/h 37 % 0.0 mm 747.0 W/m2 CLR
13:46 22.1 °C 5.9 °C 1017.8 hPa Calm     35 % 0.0 mm 768.0 W/m2 CLR
13:51 22.3 °C 6.1 °C 1017.8 hPa NNE 9.3 km/h 9.3 km/h 35 % 0.0 mm 793.0 W/m2 CLR
13:56 22.5 °C 5.8 °C 1017.8 hPa ENE 4.8 km/h 4.8 km/h 34 % 0.0 mm 777.0 W/m2 CLR
14:01 22.8 °C 5.2 °C 1017.8 hPa NNE 12.9 km/h 12.9 km/h 32 % 0.0 mm 686.0 W/m2 CLR
14:06 22.8 °C 5.3 °C 1017.5 hPa NNE 9.3 km/h 9.3 km/h 32 % 0.0 mm 642.0 W/m2 CLR
14:11 22.7 °C 5.2 °C 1017.5 hPa NE 7.4 km/h 7.4 km/h 32 % 0.0 mm 656.0 W/m2 CLR
14:16 22.7 °C 5.2 °C 1017.5 hPa East 5.6 km/h   32 % 0.0 mm 703.0 W/m2 CLR
14:21 22.8 °C 4.3 °C 1017.5 hPa East 3.2 km/h 3.2 km/h 30 % 0.0 mm 715.0 W/m2 CLR
14:26 23.1 °C 4.1 °C 1017.5 hPa East 1.6 km/h 1.6 km/h 29 % 0.0 mm 740.0 W/m2 CLR
14:31 23.3 °C 2.7 °C 1017.5 hPa NE 5.6 km/h 5.6 km/h 26 % 0.0 mm 745.0 W/m2 CLR
14:36 23.5 °C 3.4 °C 1017.5 hPa ENE 9.3 km/h 9.3 km/h 27 % 0.0 mm 751.0 W/m2 CLR
14:41 23.4 °C 3.4 °C 1017.2 hPa East 1.9 km/h   27 % 0.0 mm 733.0 W/m2 CLR
14:46 23.4 °C 3.3 °C 1017.2 hPa Calm     27 % 0.0 mm 657.0 W/m2 CLR
14:51 23.3 °C 3.3 °C 1017.2 hPa Calm     27 % 0.0 mm 679.0 W/m2 CLR
14:56 23.7 °C 3.6 °C 1017.2 hPa NNE 9.3 km/h 9.3 km/h 27 % 0.0 mm 738.0 W/m2 CLR
15:01 24.0 °C 3.3 °C 1016.8 hPa East 1.9 km/h   26 % 0.0 mm 793.0 W/m2 CLR
15:06 24.2 °C 4.0 °C 1016.8 hPa East 5.6 km/h 5.6 km/h 27 % 0.0 mm 803.0 W/m2 CLR
15:11 24.1 °C 3.3 °C 1016.8 hPa ESE 7.4 km/h 7.4 km/h 26 % 0.0 mm 853.0 W/m2 CLR
15:16 24.0 °C 3.8 °C 1016.8 hPa ENE 11.3 km/h 11.3 km/h 27 % 0.0 mm 865.0 W/m2 CLR
15:21 24.4 °C 3.1 °C 1016.5 hPa Calm     25 % 0.0 mm 863.0 W/m2 CLR
15:26 24.7 °C 2.7 °C 1016.5 hPa NNE 5.6 km/h 5.6 km/h 24 % 0.0 mm 870.0 W/m2 CLR
15:31 24.8 °C 1.7 °C 1016.5 hPa ESE 13.0 km/h 13.0 km/h 22 % 0.0 mm 789.0 W/m2 CLR
15:36 24.7 °C 0.2 °C 1016.5 hPa SE 9.7 km/h 9.7 km/h 20 % 0.0 mm 763.0 W/m2 CLR
15:41 24.6 °C 0.2 °C 1016.5 hPa East 9.7 km/h 9.7 km/h 20 % 0.0 mm 735.0 W/m2 CLR
15:46 24.4 °C -0.1 °C 1016.1 hPa East 13.0 km/h 13.0 km/h 20 % 0.0 mm 738.0 W/m2 CLR
15:51 24.3 °C 0.6 °C 1016.1 hPa ENE 3.7 km/h   21 % 0.0 mm 698.0 W/m2 CLR
15:56 24.6 °C 0.2 °C 1016.1 hPa East 9.3 km/h 9.3 km/h 20 % 0.0 mm 756.0 W/m2 CLR
16:01 24.6 °C -0.6 °C 1016.1 hPa East 13.0 km/h 13.0 km/h 19 % 0.0 mm 735.0 W/m2 CLR
16:06 24.3 °C -0.8 °C 1016.1 hPa East 11.1 km/h 11.1 km/h 19 % 0.0 mm 758.0 W/m2 CLR
16:11 24.3 °C -0.1 °C 1015.8 hPa Calm     20 % 0.0 mm 747.0 W/m2 CLR
16:16 24.5 °C 0.1 °C 1015.8 hPa ENE 16.7 km/h 16.7 km/h 20 % 0.0 mm 719.0 W/m2 CLR
16:21 24.8 °C 0.3 °C 1015.8 hPa ESE 9.7 km/h 9.7 km/h 20 % 0.0 mm 728.0 W/m2 CLR
16:26 24.9 °C -0.3 °C 1015.8 hPa NE 6.4 km/h 6.4 km/h 19 % 0.0 mm 728.0 W/m2 CLR
16:31 25.0 °C 0.4 °C 1015.8 hPa ESE 9.7 km/h 9.7 km/h 20 % 0.0 mm 701.0 W/m2 CLR
16:36 24.8 °C -0.4 °C 1015.8 hPa East 9.3 km/h 9.3 km/h 19 % 0.0 mm 745.0 W/m2 CLR
16:41 25.0 °C -0.2 °C 1015.8 hPa ESE 9.3 km/h 9.3 km/h 19 % 0.0 mm 779.0 W/m2 CLR
16:46 24.8 °C -0.4 °C 1015.8 hPa ESE 11.3 km/h 11.3 km/h 19 % 0.0 mm 758.0 W/m2 CLR
16:51 24.7 °C 0.2 °C 1015.5 hPa SE 18.5 km/h 18.5 km/h 20 % 0.0 mm 733.0 W/m2 CLR
16:52 24.7 °C 0.2 °C 1015.5 hPa SSE 9.7 km/h 9.7 km/h 20 % 0.0 mm 726.0 W/m2 CLR
16:57 24.9 °C 0.4 °C 1015.5 hPa ESE 11.1 km/h 11.1 km/h 20 % 0.0 mm 745.0 W/m2 CLR
17:02 25.2 °C 0.6 °C 1015.5 hPa ESE 13.0 km/h 13.0 km/h 20 % 0.0 mm 742.0 W/m2 CLR
17:07 24.9 °C 0.4 °C 1015.5 hPa ESE 18.5 km/h 18.5 km/h 20 % 0.0 mm 726.0 W/m2 CLR
17:12 24.8 °C 0.3 °C 1015.5 hPa East 7.4 km/h 7.4 km/h 20 % 0.0 mm 712.0 W/m2 CLR
17:17 24.9 °C 1.1 °C 1015.5 hPa East 9.3 km/h 9.3 km/h 21 % 0.0 mm 712.0 W/m2 CLR
17:22 25.1 °C 1.2 °C 1015.5 hPa East 18.5 km/h 18.5 km/h 21 % 0.0 mm 703.0 W/m2 CLR
17:27 24.9 °C 1.7 °C 1015.5 hPa ESE 18.5 km/h 18.5 km/h 22 % 0.0 mm 700.0 W/m2 CLR
17:32 24.7 °C 2.2 °C 1015.1 hPa SE 22.2 km/h 22.2 km/h 23 % 0.0 mm 677.0 W/m2 CLR
17:37 24.6 °C 2.1 °C 1015.1 hPa ENE 5.6 km/h 5.6 km/h 23 % 0.0 mm 619.0 W/m2 CLR
18:00 24.4 °C 3.1 °C 1015.1 hPa ESE 18.5 km/h 18.5 km/h 25 % 0.0 mm 540.0 W/m2 OVC
18:05 24.2 °C 3.4 °C 1015.1 hPa SE 14.8 km/h 14.8 km/h 26 % 0.0 mm 468.0 W/m2 CLR
18:10 24.2 °C 3.5 °C 1015.1 hPa ESE 14.8 km/h 14.8 km/h 26 % 0.0 mm 446.0 W/m2 CLR
18:15 24.1 °C 3.9 °C 1015.1 hPa East 13.0 km/h 13.0 km/h 27 % 0.0 mm 359.0 W/m2 CLR
18:20 24.0 °C 3.8 °C 1015.1 hPa East 11.3 km/h 11.3 km/h 27 % 0.0 mm 343.0 W/m2 CLR
18:25 23.9 °C 4.3 °C 1015.1 hPa ESE 18.5 km/h 18.5 km/h 28 % 0.0 mm 290.0 W/m2 CLR
18:30 23.8 °C 4.2 °C 1015.1 hPa ESE 8.0 km/h 8.0 km/h 28 % 0.0 mm 230.0 W/m2 CLR
18:35 23.7 °C 4.1 °C 1015.1 hPa ESE 13.0 km/h 13.0 km/h 28 % 0.0 mm 283.0 W/m2 CLR
18:40 23.7 °C 4.1 °C 1015.1 hPa ESE 13.0 km/h 13.0 km/h 28 % 0.0 mm 239.0 W/m2 CLR
18:45 23.4 °C 3.9 °C 1015.1 hPa East 11.1 km/h 11.1 km/h 28 % 0.0 mm 218.0 W/m2 CLR
18:50 23.3 °C 4.3 °C 1015.1 hPa ESE 8.0 km/h 8.0 km/h 29 % 0.0 mm 206.0 W/m2 CLR
18:56 23.2 °C 3.7 °C 1015.1 hPa ESE 11.1 km/h 11.1 km/h 28 % 0.0 mm 204.0 W/m2 CLR
19:01 23.0 °C 3.5 °C 1015.1 hPa SE 9.3 km/h 9.3 km/h 28 % 0.0 mm 195.0 W/m2 CLR
19:06 22.8 °C 3.3 °C 1015.1 hPa East 9.3 km/h 9.3 km/h 28 % 0.0 mm 163.0 W/m2 CLR
19:11 22.7 °C 3.8 °C 1015.1 hPa East 9.3 km/h 9.3 km/h 29 % 0.0 mm 148.0 W/m2 CLR
19:16 22.6 °C 3.2 °C 1015.1 hPa ESE 13.0 km/h 13.0 km/h 28 % 0.0 mm 141.0 W/m2 CLR
19:21 22.5 °C 3.1 °C 1015.1 hPa East 9.3 km/h 9.3 km/h 28 % 0.0 mm 139.0 W/m2 CLR
19:26 22.4 °C 3.0 °C 1015.1 hPa East 11.1 km/h 11.1 km/h 28 % 0.0 mm 165.0 W/m2 CLR
19:31 22.3 °C 3.4 °C 1015.1 hPa ESE 8.0 km/h 8.0 km/h 29 % 0.0 mm 179.0 W/m2 CLR
19:36 22.3 °C 3.4 °C 1015.1 hPa ESE 9.3 km/h 9.3 km/h 29 % 0.0 mm 171.0 W/m2 CLR
19:41 22.2 °C 3.3 °C 1015.1 hPa SE 8.0 km/h 8.0 km/h 29 % 0.0 mm 156.0 W/m2 CLR
19:46 22.1 °C 2.7 °C 1015.1 hPa SE 9.3 km/h 9.3 km/h 28 % 0.0 mm 190.0 W/m2 CLR
19:51 22.0 °C 3.1 °C 1015.1 hPa ESE 14.8 km/h 14.8 km/h 29 % 0.0 mm 149.0 W/m2 CLR
19:56 21.7 °C 2.8 °C 1015.1 hPa East 9.3 km/h 9.3 km/h 29 % 0.0 mm 97.0 W/m2 CLR
20:01 21.5 °C 3.2 °C 1015.1 hPa SE 7.4 km/h 7.4 km/h 30 % 0.0 mm 81.0 W/m2 FEW
20:06 21.3 °C 3.1 °C 1015.1 hPa ESE 8.0 km/h 8.0 km/h 30 % 0.0 mm 72.0 W/m2 FEW
20:11 21.2 °C 3.4 °C 1015.1 hPa East 1.9 km/h   31 % 0.0 mm 62.0 W/m2 SCT
20:16 21.0 °C 3.2 °C 1015.1 hPa ESE 6.4 km/h 6.4 km/h 31 % 0.0 mm 60.0 W/m2 SCT
20:21 20.9 °C 3.1 °C 1015.5 hPa East 9.3 km/h 9.3 km/h 31 % 0.0 mm 53.0 W/m2 SCT
20:26 20.8 °C 3.0 °C 1015.5 hPa ENE 7.4 km/h 7.4 km/h 31 % 0.0 mm 46.0 W/m2 SCT
20:31 20.6 °C 3.3 °C 1015.5 hPa East 5.6 km/h 5.6 km/h 32 % 0.0 mm 37.0 W/m2 BKN
20:36 20.4 °C 3.2 °C 1015.5 hPa Calm     32 % 0.0 mm 25.0 W/m2 BKN
20:41 20.3 °C 3.1 °C 1015.5 hPa East 3.7 km/h 3.7 km/h 32 % 0.0 mm 18.0 W/m2 BKN
20:46 20.1 °C 3.3 °C 1015.5 hPa Calm     33 % 0.0 mm 12.0 W/m2 BKN
20:51 19.9 °C 3.2 °C 1015.5 hPa Calm     33 % 0.0 mm 7.0 W/m2 OVC
20:56 19.8 °C 3.4 °C 1015.5 hPa East 4.8 km/h 4.8 km/h 34 % 0.0 mm 5.0 W/m2 OVC
21:01 19.5 °C 3.2 °C 1015.5 hPa Calm     34 % 0.0 mm 0.0 W/m2 CLR
21:06 19.2 °C 3.4 °C 1015.8 hPa ENE 3.7 km/h 3.7 km/h 35 % 0.0 mm 0.0 W/m2 CLR
21:11 19.0 °C 3.2 °C 1015.8 hPa Calm     35 % 0.0 mm 0.0 W/m2 CLR
21:16 18.8 °C 3.4 °C 1015.8 hPa Calm     36 % 0.0 mm 0.0 W/m2 CLR
21:21 18.6 °C 3.2 °C 1015.8 hPa Calm     36 % 0.0 mm 0.0 W/m2 CLR
21:26 18.4 °C 3.4 °C 1015.8 hPa Calm     37 % 0.0 mm 0.0 W/m2 CLR
21:31 18.2 °C 3.3 °C 1015.8 hPa Calm     37 % 0.0 mm 0.0 W/m2 CLR
21:36 18.1 °C 3.5 °C 1015.8 hPa Calm     38 % 0.0 mm 0.0 W/m2 CLR
21:41 17.9 °C 3.3 °C 1015.8 hPa Calm     38 % 0.0 mm 0.0 W/m2 CLR
21:46 17.8 °C 3.3 °C 1016.1 hPa Calm     38 % 0.0 mm 0.0 W/m2 CLR
21:51 17.6 °C 3.4 °C 1016.1 hPa Calm     39 % 0.0 mm 0.0 W/m2 CLR
21:56 17.3 °C 3.2 °C 1016.1 hPa Calm     39 % 0.0 mm 0.0 W/m2 CLR
22:01 16.9 °C 3.2 °C 1016.1 hPa Calm     40 % 0.0 mm 0.0 W/m2 CLR
22:06 16.7 °C 3.3 °C 1016.1 hPa Calm     41 % 0.0 mm 0.0 W/m2 CLR
22:11 16.3 °C 3.1 °C 1016.5 hPa Calm     41 % 0.0 mm 0.0 W/m2 CLR
22:16 16.2 °C 3.2 °C 1016.5 hPa Calm     42 % 0.0 mm 0.0 W/m2 CLR
22:21 15.9 °C 3.1 °C 1016.5 hPa Calm     42 % 0.0 mm 0.0 W/m2 CLR
22:26 15.8 °C 3.3 °C 1016.5 hPa Calm     43 % 0.0 mm 0.0 W/m2 CLR
22:31 15.6 °C 3.3 °C 1016.5 hPa Calm     44 % 0.0 mm 0.0 W/m2 CLR
22:36 15.2 °C 3.1 °C 1016.5 hPa Calm     44 % 0.0 mm 0.0 W/m2 CLR
22:41 14.9 °C 3.1 °C 1016.5 hPa Calm     45 % 0.0 mm 0.0 W/m2 CLR
22:46 14.7 °C 3.2 °C 1016.5 hPa Calm     46 % 0.0 mm 0.0 W/m2 CLR
22:51 14.4 °C 2.9 °C 1016.8 hPa Calm     46 % 0.0 mm 0.0 W/m2 CLR
22:56 14.2 °C 3.0 °C 1016.8 hPa Calm     47 % 0.0 mm 0.0 W/m2 CLR
23:01 13.9 °C 3.1 °C 1016.8 hPa Calm     48 % 0.0 mm 0.0 W/m2 CLR
23:06 13.6 °C 3.1 °C 1016.8 hPa Calm     49 % 0.0 mm 0.0 W/m2 CLR
23:11 13.4 °C 3.2 °C 1016.8 hPa Calm     50 % 0.0 mm 0.0 W/m2 CLR
23:16 13.0 °C 3.1 °C 1016.8 hPa Calm     51 % 0.0 mm 0.0 W/m2 CLR
23:21 12.7 °C 3.1 °C 1016.8 hPa Calm     52 % 0.0 mm 0.0 W/m2 CLR
23:26 12.4 °C 3.1 °C 1016.8 hPa Calm     53 % 0.0 mm 0.0 W/m2 CLR
23:31 12.2 °C 2.8 °C 1016.8 hPa Calm     53 % 0.0 mm 0.0 W/m2 CLR
23:36 11.9 °C 2.9 °C 1016.8 hPa Calm     54 % 0.0 mm 0.0 W/m2 CLR
23:41 11.7 °C 2.7 °C 1016.8 hPa Calm     54 % 0.0 mm 0.0 W/m2 CLR
23:46 11.4 °C 2.7 °C 1016.8 hPa Calm     55 % 0.0 mm 0.0 W/m2 CLR
23:51 11.2 °C 2.8 °C 1017.2 hPa Calm     56 % 0.0 mm 0.0 W/m2 CLR
23:56 11.0 °C 2.6 °C 1017.2 hPa Calm     56 % 0.0 mm 0.0 W/m2 CLR
Lo Temps de Massalio
Compliments of Weather Underground - 1.25 mb